ROMMA est une association bénévole à but non lucratif. Votre soutien est indispensable : ADHERER à ROMMA ou FAIRE un DON

Chambon - (38, Isère)

Oisans (2460 m)   Longitude: 06° 10' 42" E   Latitude: 45° 01' 32" N Station partenaire n°803
 

Détail journalier du     <<     >>

Température Humidité Vent Dir Rafale Dir. rafale Neige 1 Neige 2
Heure (°C) (%) (km/h) (km/h) (cm) (cm)
01:00 -3.52328NE60NE182226
02:00 -3.92238NE65NE179224
03:00 -3.81942NE68NE179219
04:00 -3.92047NE73ENE178216
05:00 -3.91936NE62NE179215
06:00 -4.01820NE45NE179214
07:00 -4.11915NE35NE179214
08:00 -3.51710NNE31NNE179214
09:00 -1.9168N28NNE178214
10:00 -1.6189NNE26NNE178214
11:00 -0.1177NNE25NNE178214
12:00 -1.32310NNE32NE178214
13:00 0.6207N25N178214
14:00 0.9229NNE29ENE178214
15:00 -0.32511NE30ENE178214
16:00 -0.12513ENE33ENE178214
17:00 0.72410E26E178214
18:00 0.1247NNE26NE178214
19:00 -0.5266NNE16NNE178214
20:00 -1.2275NNE15NNE178214
21:00 -1.0263O10NNO178214
22:00 -1.6264N13N178214
23:00 -1.4256NNE18NO178214
minuit -1.1213SO13NO178214

Graphique du 21-03-2019

 

Serveur OMMA